Fastsat-HSV

operational
NORAD ID: 37225 Int'l Des: 2010-062 Owner: AFSMC Country: US
LEOCIRCULAR

About Fastsat-HSV

Description loading...

Live Position

Loading 3D Globe...

Upcoming Passes

Altitude History

Altitude vs Time

uPlot chart will show altitude changes over time

Two-Line Element Set

1 37225U 10062D 25350.98312166 .00000493 00000-0 69484-4 0 9990
2 37225 71.9706 204.8767 0014759 113.3310 246.9409 14.81868098 87139
Epoch: Dec 16, 2025 • Age: 7 hours

Current Status

Altitude 625.1 km
Velocity 7.56 km/s
Sub-Earth Point 70.18°N, 136.41°E
Launch Date Nov 20, 2010
Age 15 years
Type other

Technical Details

Classification Payload
Mass 148.00 kg
Dry Mass 148.00 kg
Total Mass 148.00 kg
Length 1.00 m
Diameter 0.70 m
Span 5.00 m
Shape Box + Ant
Manufacturer DYNT
Bus Type FASTSAT
Phase Status In Orbit
Owner/State AFSMC/US

Large Constellations

Loading constellations...